• MPC Preparation (Info)

  • MPEC 2012-F76 : 2012 FN35

    The following Minor Planet Electronic Circular may be linked-to from your own Web pages, but must not otherwise be redistributed electronically.

    A form allowing access to any MPEC is at the bottom of this page.


    Read MPEC 2012-F75 Read MPEC 2012-F77


    M.P.E.C. 2012-F76                                Issued 2012 Mar. 25, 18:58 UT
    
         The Minor Planet Electronic Circulars contain information on unusual
             minor planets and routine data on comets.  They are published
       on behalf of Commission 20 of the International Astronomical Union by the
              Minor Planet Center, Smithsonian Astrophysical Observatory,
                              Cambridge, MA 02138, U.S.A.
    
                 Prepared using the Tamkin Foundation Computer Network
    
                                  MPC@CFA.HARVARD.EDU
                URL https://www.minorplanetcenter.net/    ISSN 1523-6714
    
                                       2012 FN35
    
    Observations:
         K12F35N* C2012 03 23.38861 12 21 59.83 +02 25 32.6          21.5 VrEF076G96
         K12F35N  C2012 03 23.39561 12 21 57.92 +02 25 17.6          21.9 VrEF076G96
         K12F35N  C2012 03 23.40257 12 21 56.08 +02 25 02.8          21.4 VrEF076G96
         K12F35N  C2012 03 23.40961 12 21 54.14 +02 24 48.2          21.6 VrEF076G96
         K12F35N  C2012 03 23.46344 12 21 39.76 +02 22 53.9          21.9 VrEF076G96
         K12F35N  C2012 03 23.46457 12 21 39.50 +02 22 52.6          22.1 VrEF076G96
         K12F35N KC2012 03 24.39455 12 17 50.05 +01 50 58.6                oEF076291
         K12F35N KC2012 03 24.39827 12 17 49.10 +01 50 50.9                oEF076291
         K12F35N KC2012 03 24.40199 12 17 48.12 +01 50 43.1                oEF076291
         K12F35N KC2012 03 25.40532 12 13 50.70 +01 17 39.9          21.3 RoEF076291
         K12F35N KC2012 03 25.41146 12 13 49.19 +01 17 27.9          21.0 RoEF076291
    
    Observer details:
    291 LPL/Spacewatch II.  Observer T. H. Bressi.  1.8-m f/2.7 reflector + CCD.
    G96 Mt. Lemmon Survey.  Observer A. R. Gibbs.  Measurers J. D. Ahern,
        E. C. Beshore, A. Boattini, A. R. Gibbs, A. D. Grauer, R. E. Hill,
        R. A. Kowalski, S. M. Larson, R. H. McNaught.  1.5-m reflector + CCD.
    
    Orbital elements:
    2012 FN35                                                Earth MOID = 0.0027 AU
    Epoch 2012 Mar. 14.0 TT = JDT 2456000.5                 MPC
    M  65.09034              (2000.0)            P               Q
    n   0.77424257     Peri.   71.64337     +0.19976845     -0.97963768
    a   1.1745856      Node     6.92649     +0.82442287     +0.15697964
    e   0.2782842      Incl.    9.57736     +0.52954650     +0.12516954
    P   1.27           H   24.9           G   0.15           U   9
    Residuals in seconds of arc
    120323 G96  0.1+  0.1+    120323 G96  0.2-  0.8-    120324 291  0.2-  0.1-
    120323 G96  0.2-  0.1-    120323 G96  0.4+  0.3+    120325 291  0.1+  0.0
    120323 G96  0.4+  0.2-    120324 291  0.1-  0.3+    120325 291  0.0   0.1-
    120323 G96  0.2-  0.0     120324 291  0.1+  0.1+
    
    Ephemeris:
    2012 FN35                a,e,i = 1.17, 0.28, 10                  q = 0.8477
    Date    TT    R. A. (2000) Decl.     Delta      r     Elong.  Phase     V
    2012 02 24    15 21 19.2 +24 18 42   0.1231  1.0354   108.6    64.9    22.7
    ...
    2012 03 10    13 35 18.2 +12 14 51   0.1310  1.1042   146.0    30.2    22.0
    ...
    2012 03 18    12 47 38.1 +05 55 56   0.1497  1.1407   165.1    13.0    21.8
    ...
    2012 03 24    12 19 28.1 +02 04 49   0.1709  1.1676   176.2     3.3    21.7
    2012 03 25    12 15 26.9 +01 31 18   0.1750  1.1720   176.6     2.9    21.8
    2012 03 26    12 11 37.2 +00 59 11   0.1792  1.1764   176.1     3.3    21.8
    ...
    2012 04 01    11 52 27.0 -01 46 25   0.2075  1.2026   167.3    10.6    22.6
    ...
    2012 04 09    11 35 46.7 -04 28 03   0.2523  1.2363   156.0    19.2    23.3
    ...
    2012 04 24    11 24 09.7 -07 42 20   0.3532  1.2952   139.6    30.2    24.5
    
    Gareth V. Williams           (C) Copyright 2012 MPC           M.P.E.C. 2012-F76
    

    Read MPEC 2012-F75 Read MPEC 2012-F77


    MPEC number:

    Enter an MPEC number in one of the following forms:

    • 1997-B01 (the full form)
    • J97B01 (the packed version of the full form)
    • B01 (the abbreviated form)